Tracking 31027 objects as of 18-Jul-2025
HD Live streaming from Space Station
objects crossing your sky now

GEESAT 3-03

Track GEESAT 3-03 now!
10-day predictions


NORAD ID: 61013
Int'l Code: 2024-159C
Perigee: 590.0 km
Apogee: 599.0 km
Inclination: 50.0 °
Period: 96.4 minutes
Semi major axis: 6965 km
RCS: Unknown
Launch date: September 5, 2024
Source: People's Republic of China (PRC)
Launch site: Taiyaun Space Center, China (TSC)
Your satellite tracking list
Your tracking list is empty




NASA's NSSDC Master Catalog

Two Line Element Set (TLE):
1 61013U 24159C   25199.60853990  .00003089  00000-0  31405-3 0  9994
2 61013  49.9916 193.7613 0006400  30.5795 329.5520 14.93394575 47232
Source of the keplerian elements: AFSPC